Погода в Хиди-Хуторе

Россия / Чеченская Республика     43°06′45″N   46°08′44″E
темп.,
°C
ветер,
м/с
пор.,
м/с
влажн.,
%
обл.,
%
осадки,
мм/ч
давл.,
гПа
погр.,
м
19 апреля, пн
пн1900:00+11ююв1184100 0.0 101616
03:00+10ю1183100 0.0 101610
06:00+11ююв118263 0.0 101614
09:00+18ссв225685 0.0 1014680
12:00+20ссв435271 0.2 10141384
15:00+17св336497 0.4 1013615
18:00+15ссз117547 0.0 101466
21:00+13ююз218388 0.0 101620
20 апреля, вт
вт2000:00+13ююв118391 0.0 101517
03:00+12юв1181100 0.0 101317
06:00+13ююв2269100 0.0 101136
09:00+20в1243100 0.0 1008380
12:00+26с233299 0.0 10061210
15:00+28юз2525100 0.0 10031968
18:00+20юз2355100 0.0 100657
21:00+16ю345694 0.0 100868
21 апреля, ср
ср2100:00+15з3770100 0.0 1012402
03:00+11зсз4894100 0.1 1015682
06:00+9юз248481 0.2 1017280
09:00+13сз336359 0.2 10171012
12:00+15ссз435351 0.0 10161193
15:00+14ссз325595 0.1 10171156
18:00+9ссз1186100 1.9 1020267
21:00+8з129778 3.9 1021154
22 апреля, чт
чт2200:00+8з019391 0.2 102196
03:00+8ююз0190100 0.2 102182
06:00+8ссв129381 0.0 1021161
09:00+10с228297 0.1 1022716
12:00+9ссз2283100 0.3 1023681
15:00+8с1285100 0.3 1023559
18:00+8св1187100 0.0 1023158
21:00+8ссв1289100 0.1 1023124
23 апреля, пт
пт2300:00+7ссз2292100 0.0 1022290
03:00+6з1298100 1.3 1023206
06:00+6з1297100 1.6 1024179
09:00+6сз2398100 3.8 1024400
12:00+6зюз1293100 4.0 1025270
15:00+8з238488 4.3 1024511
18:00+9з117962 0.0 102322
21:00+6ю22835 0.0 102519